BAW753 LWSK-LTFJ

Flight info

Callsign BAW753
Flight time N/A
Altitude 19000
Route SIN2D SIN T215 VELBA/N0430F370 P127 ROVDO N739 ADORU UM19 IBODU IBODU1H
Aircraft A319/M-SDE3FGHIRWY/LB1

Departure

Time 2026-05-09 11:29
Airport Skopje International Airport (LWSK)

Arrival

Time N/A
Airport Istanbul Sabiha Gökçen International Airport (LTFJ)
Time Latitude Longitude Altitude Speed Heading
2026-05-09 10:48 41.96032 21.62606 793 ft 0 kts 76°
2026-05-09 10:48 41.96033 21.62609 794 ft 0 kts 76°
2026-05-09 11:20 41.96030 21.62593 793 ft 4 kts 81°
2026-05-09 11:20 41.96030 21.62558 793 ft 4 kts 110°
2026-05-09 11:21 41.96044 21.62533 793 ft 3 kts 162°
2026-05-09 11:21 41.96048 21.62532 793 ft 0 kts 166°
2026-05-09 11:25 41.96047 21.62532 793 ft 1 kts 166°
2026-05-09 11:25 41.96045 21.62532 793 ft 0 kts 166°
2026-05-09 11:25 41.96043 21.62533 793 ft 1 kts 167°
2026-05-09 11:25 41.96027 21.62527 793 ft 3 kts 210°
2026-05-09 11:26 41.96011 21.62489 792 ft 7 kts 237°
2026-05-09 11:26 41.95956 21.62488 791 ft 10 kts 164°
2026-05-09 11:26 41.95880 21.62513 791 ft 13 kts 166°
2026-05-09 11:26 41.95777 21.62547 788 ft 18 kts 165°
2026-05-09 11:27 41.95645 21.62594 786 ft 21 kts 165°
2026-05-09 11:27 41.95516 21.62640 785 ft 20 kts 165°
2026-05-09 11:27 41.95374 21.62691 783 ft 20 kts 165°
2026-05-09 11:27 41.95231 21.62740 780 ft 17 kts 166°
2026-05-09 11:28 41.95143 21.62721 778 ft 15 kts 242°
2026-05-09 11:28 41.95117 21.62577 779 ft 17 kts 257°
2026-05-09 11:28 41.95124 21.62510 781 ft 7 kts 326°
2026-05-09 11:28 41.95180 21.62488 781 ft 10 kts 346°
2026-05-09 11:29 41.95340 21.62434 781 ft 51 kts 346°
2026-05-09 11:29 41.95878 21.62241 787 ft 108 kts 345°
2026-05-09 11:29 41.96786 21.61927 877 ft 152 kts 346°
2026-05-09 11:29 41.97792 21.61576 1567 ft 149 kts 345°
2026-05-09 11:30 41.98809 21.61218 2193 ft 157 kts 344°
2026-05-09 11:30 41.99946 21.60825 2629 ft 180 kts 345°
2026-05-09 11:30 42.01193 21.60191 3082 ft 206 kts 332°
2026-05-09 11:30 42.02415 21.58979 3695 ft 232 kts 315°
2026-05-09 11:31 42.03413 21.57133 4406 ft 256 kts 297°
2026-05-09 11:31 42.03930 21.54799 5420 ft 267 kts 278°
2026-05-09 11:31 42.03837 21.52291 6568 ft 273 kts 258°
2026-05-09 11:31 42.03094 21.49925 7652 ft 279 kts 238°
2026-05-09 11:32 42.01750 21.48036 8683 ft 285 kts 217°
2026-05-09 11:32 41.99939 21.46906 9713 ft 292 kts 195°
2026-05-09 11:32 41.97888 21.46603 10485 ft 305 kts 186°
2026-05-09 11:32 41.95734 21.46092 10954 ft 322 kts 194°
2026-05-09 11:33 41.93526 21.45364 11742 ft 330 kts 195°
2026-05-09 11:33 41.91279 21.44622 12588 ft 334 kts 194°
2026-05-09 11:33 41.86632 21.43727 14222 ft 344 kts 173°
2026-05-09 11:34 41.84410 21.44795 14911 ft 349 kts 146°
2026-05-09 11:34 41.82723 21.47185 15605 ft 355 kts 119°
2026-05-09 11:34 41.81986 21.50308 16271 ft 360 kts 96°
2026-05-09 11:34 41.81961 21.53712 16989 ft 364 kts 82°
2026-05-09 11:35 41.82494 21.57046 17679 ft 368 kts 74°
2026-05-09 11:35 41.83137 21.60344 18374 ft 373 kts 74°
2026-05-09 11:35 41.83816 21.63762 18971 ft 378 kts 73°
2026-05-09 11:35 41.84494 21.67143 19561 ft 382 kts 73°
2026-05-09 11:36 41.85203 21.70659 20169 ft 387 kts 73°
2026-05-09 11:36 41.85896 21.74115 20741 ft 392 kts 73°
2026-05-09 11:36 41.86606 21.77674 21329 ft 397 kts 73°
2026-05-09 11:36 41.87317 21.81266 21908 ft 401 kts 73°
2026-05-09 11:37 41.88035 21.84909 22486 ft 406 kts 73°
2026-05-09 11:37 41.88758 21.88594 23051 ft 410 kts 73°
2026-05-09 11:37 41.89489 21.92310 23601 ft 415 kts 73°
2026-05-09 11:37 41.90228 21.96085 24086 ft 420 kts 73°
2026-05-09 11:38 41.90971 21.99879 24583 ft 423 kts 73°
2026-05-09 11:38 41.91720 22.03712 25104 ft 426 kts 73°
2026-05-09 11:38 41.92474 22.07573 25632 ft 428 kts 73°
2026-05-09 11:38 41.93231 22.11446 26161 ft 431 kts 73°
2026-05-09 11:39 41.93994 22.15357 26686 ft 433 kts 73°
2026-05-09 11:39 41.94760 22.19289 27182 ft 436 kts 73°
2026-05-09 11:39 41.95526 22.23230 27656 ft 438 kts 73°
2026-05-09 11:40 41.97063 22.31214 28624 ft 444 kts 73°
2026-05-09 11:40 41.97752 22.35264 29087 ft 448 kts 79°
2026-05-09 11:40 41.98007 22.39458 29565 ft 452 kts 89°
2026-05-09 11:40 41.97906 22.43704 30032 ft 456 kts 91°
2026-05-09 11:41 41.97790 22.47966 30416 ft 459 kts 91°
2026-05-09 11:41 41.97677 22.52265 30806 ft 461 kts 91°
2026-05-09 11:41 41.97564 22.56570 31187 ft 463 kts 91°
2026-05-09 11:41 41.97449 22.60910 31559 ft 465 kts 91°
2026-05-09 11:42 41.97331 22.65265 31991 ft 465 kts 91°
2026-05-09 11:42 41.97212 22.69594 32529 ft 464 kts 91°
2026-05-09 11:42 41.97092 22.73921 33060 ft 462 kts 91°
2026-05-09 11:42 41.96968 22.78234 33611 ft 461 kts 91°
2026-05-09 11:43 41.96838 22.82513 34187 ft 458 kts 91°
2026-05-09 11:43 41.96708 22.86786 34657 ft 457 kts 91°
2026-05-09 11:43 41.96794 22.91035 35041 ft 456 kts 85°
2026-05-09 11:43 41.97022 22.95293 35415 ft 456 kts 84°
2026-05-09 11:44 41.97172 22.98110 35658 ft 457 kts 85°
2026-05-09 11:44 41.97397 23.02375 36020 ft 457 kts 85°
2026-05-09 11:44 41.97615 23.06632 36381 ft 458 kts 85°
2026-05-09 11:44 41.97900 23.12303 36843 ft 458 kts 85°
2026-05-09 11:45 41.98044 23.15193 36999 ft 459 kts 85°
2026-05-09 11:45 41.98464 23.23717 37053 ft 456 kts 85°
2026-05-09 11:46 41.98880 23.32200 37062 ft 455 kts 85°
2026-05-09 11:46 41.99293 23.40678 37043 ft 455 kts 85°
2026-05-09 11:47 41.99693 23.49165 37053 ft 454 kts 85°
2026-05-09 11:47 42.00084 23.57630 37039 ft 454 kts 85°
2026-05-09 11:48 42.00471 23.66096 37037 ft 454 kts 85°
2026-05-09 11:48 42.00852 23.74555 37032 ft 453 kts 85°
2026-05-09 11:49 42.01225 23.82966 37031 ft 453 kts 86°
2026-05-09 11:49 42.01591 23.91418 37028 ft 453 kts 86°
2026-05-09 11:50 42.01947 23.99865 37019 ft 452 kts 86°
2026-05-09 11:50 42.02296 24.08305 37024 ft 452 kts 86°
2026-05-09 11:51 42.02648 24.16757 37007 ft 452 kts 86°
2026-05-09 11:51 42.03001 24.25189 37008 ft 451 kts 86°
2026-05-09 11:52 42.03343 24.33621 37003 ft 452 kts 86°
2026-05-09 11:52 42.03673 24.42057 37001 ft 452 kts 86°
2026-05-09 11:53 42.03992 24.50502 36996 ft 451 kts 86°
2026-05-09 11:53 42.04308 24.58928 36991 ft 451 kts 86°
2026-05-09 11:54 42.04619 24.67356 36982 ft 451 kts 86°
2026-05-09 11:54 42.04928 24.75788 36991 ft 452 kts 86°
2026-05-09 11:55 42.05226 24.84231 36988 ft 451 kts 86°
2026-05-09 11:56 42.03588 25.05132 36983 ft 451 kts 97°
2026-05-09 11:56 42.03169 25.09306 36983 ft 451 kts 98°
2026-05-09 11:57 42.02318 25.17664 36982 ft 451 kts 98°
2026-05-09 11:57 42.01458 25.26033 36980 ft 451 kts 98°
2026-05-09 11:58 42.00593 25.34385 36982 ft 451 kts 98°
2026-05-09 11:58 41.99714 25.42726 36981 ft 451 kts 98°
2026-05-09 11:59 41.98837 25.51076 36981 ft 451 kts 98°
2026-05-09 11:59 41.97960 25.59409 36980 ft 450 kts 98°
2026-05-09 12:00 41.97073 25.67739 36975 ft 451 kts 98°
2026-05-09 12:00 41.96176 25.76071 36979 ft 451 kts 98°